Weather History for Cairo, IL

Change the Weather History Date:

Tuesday, September 24, 2013

  Actual Average Record
Temperature  
Mean Temperature 66 °F -  
Max Temperature 79 °F 75 °F 89 °F (2007)
Min Temperature 55 °F 56 °F 39 °F (1989)
Cooling Degree Days 2    
Growing Degree Days 16 (Base 50)    
Moisture  
Dew Point 61 °F    
Average Humidity 86    
Maximum Humidity 92    
Minimum Humidity 67    
Precipitation  
Precipitation 0.00 in - - ()
Sea Level Pressure  
Sea Level Pressure 29.89 in    
Wind  
Wind Speed 3 mph (ESE)    
Max Wind Speed 14 mph    
Max Gust Speed 22 mph    
Visibility 8 miles    
Events Rain , Thunderstorm    
Averages and records for this station are not official NWS values.
T = Trace of Precipitation, MM = Missing Value Source: NWS Daily Summary

Daily Weather History Graph

Daily Weather History Graph

Search for Another Location

Airport:

Trip Planner

Search our weather history database for the weather conditions in past years. The results will help you decide how hot, cold, wet, or windy it might be!

Date:

Astronomy

Sep. 24, 2013 Rise Set
Actual Time 6:46 AM CDT 6:50 PM CDT
Civil Twilight 6:20 AM CDT 7:16 PM CDT
Nautical Twilight 5:50 AM CDT 7:46 PM CDT
Astronomical Twilight 5:19 AM CDT 8:17 PM CDT
Moon 10:15 PM CDT 11:54 AM CDT
Length of Visible Light 12h 55m
Length of Day
12h 03m
Waning Gibbous, 73% of the Moon is Illuminated
Sep 24
Waning Gibbous
Sep 26
Last Quarter
Oct 4
New
Oct 11
First Quarter
Oct 18
Full

Hourly Weather History & Observations

Time (CDT) Temp. Dew Point Humidity Pressure Visibility Wind Dir Wind Speed Gust Speed Precip Events Conditions
12:15 AM 60.4 °F 53.8 °F 79% 29.95 in 10.0 mi Calm Calm - N/A   Clear
12:35 AM 60.6 °F 56.1 °F 85% 29.95 in 10.0 mi East 3.5 mph - N/A   Clear
12:55 AM 58.3 °F 53.4 °F 84% 29.95 in 10.0 mi Calm Calm - N/A   Clear
1:15 AM 57.4 °F 53.2 °F 86% 29.94 in 10.0 mi NE 3.5 mph - N/A   Clear
1:35 AM 56.5 °F 52.7 °F 87% 29.95 in 10.0 mi NE 3.5 mph - N/A   Clear
1:55 AM 57.9 °F 54.1 °F 87% 29.94 in 10.0 mi ENE 3.5 mph - N/A   Clear
2:35 AM 58.5 °F 55.2 °F 89% 29.94 in 10.0 mi NNE 3.5 mph - N/A   Clear
2:55 AM 58.3 °F 54.9 °F 88% 29.94 in 10.0 mi NE 3.5 mph - N/A   Clear
3:15 AM 58.5 °F 55.2 °F 89% 29.93 in 10.0 mi NNE 3.5 mph - N/A   Clear
3:35 AM 57.0 °F 53.6 °F 88% 29.94 in 10.0 mi NNE 4.6 mph - N/A   Clear
3:55 AM 57.2 °F 53.8 °F 88% 29.94 in 10.0 mi NE 3.5 mph - N/A   Clear
4:35 AM 57.6 °F 54.7 °F 90% 29.94 in 10.0 mi NE 4.6 mph - N/A   Clear
4:55 AM 55.8 °F 52.9 °F 90% 29.95 in 7.0 mi Calm Calm - N/A   Clear
5:15 AM 55.6 °F 52.9 °F 91% 29.95 in 7.0 mi Calm Calm - N/A   Clear
5:35 AM 56.1 °F 53.4 °F 91% 29.95 in 7.0 mi NE 3.5 mph - N/A   Scattered Clouds
5:55 AM 56.1 °F 53.6 °F 91% 29.95 in 7.0 mi ENE 3.5 mph - N/A   Scattered Clouds
6:15 AM 57.9 °F 55.4 °F 91% 29.95 in 10.0 mi Calm Calm - N/A   Scattered Clouds
6:35 AM 58.5 °F 55.9 °F 91% 29.94 in 10.0 mi Calm Calm - N/A   Scattered Clouds
6:55 AM 58.6 °F 56.3 °F 92% 29.94 in 7.0 mi ENE 3.5 mph - N/A   Scattered Clouds
7:15 AM 59.2 °F 56.8 °F 92% 29.94 in 7.0 mi ENE 3.5 mph - N/A   Clear
7:35 AM 60.8 °F 58.3 °F 91% 29.94 in 7.0 mi Calm Calm - N/A   Clear
7:55 AM 62.6 °F 60.3 °F 92% 29.93 in 10.0 mi Calm Calm - N/A   Clear
8:15 AM 64.6 °F 61.7 °F 90% 29.93 in 10.0 mi ENE 4.6 mph - N/A   Scattered Clouds
8:35 AM 66.6 °F 62.8 °F 88% 29.93 in 10.0 mi East 5.8 mph - N/A   Clear
8:55 AM 67.8 °F 62.8 °F 84% 29.92 in 10.0 mi East 5.8 mph - N/A   Mostly Cloudy
9:15 AM 70.0 °F 64.2 °F 82% 29.92 in 10.0 mi East 4.6 mph - N/A   Scattered Clouds
9:35 AM 72.9 °F 65.7 °F 78% 29.91 in 10.0 mi ESE 6.9 mph - N/A   Scattered Clouds
9:55 AM 73.6 °F 65.5 °F 76% 29.92 in 10.0 mi SE 9.2 mph - N/A   Scattered Clouds
10:15 AM 73.9 °F 65.5 °F 75% 29.92 in 10.0 mi ESE 5.8 mph - N/A   Scattered Clouds
10:35 AM 75.6 °F 66.2 °F 73% 29.92 in 10.0 mi SE 9.2 mph - N/A   Clear
10:55 AM 76.5 °F 66.4 °F 71% 29.92 in 10.0 mi SE 6.9 mph - N/A   Mostly Cloudy
11:15 AM 77.9 °F 67.3 °F 70% 29.90 in 10.0 mi East 8.1 mph - N/A   Mostly Cloudy
11:35 AM 78.6 °F 66.9 °F 67% 29.91 in 10.0 mi SSE 5.8 mph - N/A   Scattered Clouds
11:55 AM 76.5 °F 66.7 °F 72% 29.91 in 10.0 mi South 5.8 mph - N/A Rain Light Rain
12:15 PM 77.9 °F 67.1 °F 69% 29.90 in 10.0 mi SSE 8.1 mph - N/A   Overcast
12:55 PM 73.0 °F 65.5 °F 77% 29.90 in 5.0 mi South 8.1 mph - N/A Rain Rain
1:15 PM 71.6 °F 66.2 °F 83% 29.89 in 3.0 mi South 4.6 mph - N/A Rain Light Rain
1:35 PM 72.5 °F 67.5 °F 84% 29.89 in 7.0 mi South 4.6 mph - N/A   Light Drizzle
1:55 PM 72.0 °F 67.5 °F 86% 29.89 in 7.0 mi SSW 4.6 mph - N/A   Overcast
2:15 PM 71.6 °F 67.1 °F 86% 29.89 in 4.0 mi SSW 4.6 mph - N/A Rain , Thunderstorm Light Thunderstorms and Rain
2:35 PM 71.6 °F 67.6 °F 87% 29.88 in 2.5 mi Calm Calm - N/A Rain , Thunderstorm Rain
2:55 PM 71.6 °F 67.5 °F 87% 29.87 in 5.0 mi Calm Calm - N/A Rain , Thunderstorm Rain
3:15 PM 72.3 °F 68.2 °F 87% 29.86 in 7.0 mi SE 3.5 mph - N/A Thunderstorm Thunderstorm
3:35 PM 72.0 °F 68.0 °F 87% 29.86 in 5.0 mi SE 3.5 mph - N/A Thunderstorm Mostly Cloudy
3:55 PM 71.6 °F 67.6 °F 87% 29.85 in 5.0 mi SE 5.8 mph - N/A Thunderstorm Overcast
4:15 PM 71.1 °F 67.3 °F 88% 29.85 in 5.0 mi SSE 5.8 mph - N/A Rain , Thunderstorm Thunderstorms and Rain
4:35 PM 70.7 °F 67.1 °F 88% 29.87 in 2.5 mi Calm Calm - N/A Rain , Thunderstorm Thunderstorms and Rain
4:55 PM 70.3 °F 66.9 °F 89% 29.85 in 1.0 mi Calm Calm - N/A Rain , Thunderstorm Heavy Thunderstorms and Rain
5:15 PM 70.0 °F 66.9 °F 90% 29.86 in 1.8 mi Calm Calm - N/A Rain , Thunderstorm Heavy Thunderstorms and Rain
5:35 PM 69.8 °F 66.6 °F 89% 29.85 in 0.8 mi SE 8.1 mph - N/A Rain , Thunderstorm Heavy Thunderstorms and Rain
5:55 PM 66.4 °F 62.8 °F 88% 29.84 in 2.0 mi SE 13.8 mph 21.9 mph N/A Rain , Thunderstorm Heavy Thunderstorms and Rain
6:15 PM 67.1 °F 63.3 °F 88% 29.83 in 7.0 mi SE 13.8 mph - N/A Rain , Thunderstorm Light Thunderstorms and Rain
6:35 PM 68.0 °F 64.0 °F 87% 29.82 in 10.0 mi SE 4.6 mph - N/A Thunderstorm Mostly Cloudy
6:55 PM 67.3 °F 63.0 °F 86% 29.83 in 10.0 mi SE 5.8 mph - N/A Thunderstorm Scattered Clouds
7:15 PM 67.5 °F 63.5 °F 87% 29.83 in 10.0 mi South 3.5 mph - N/A Thunderstorm Mostly Cloudy
7:35 PM 66.6 °F 62.2 °F 86% 29.84 in 10.0 mi SE 3.5 mph - N/A   Mostly Cloudy
7:55 PM 66.0 °F 61.7 °F 86% 29.84 in 10.0 mi SSE 3.5 mph - N/A Thunderstorm Mostly Cloudy
8:15 PM 66.4 °F 62.1 °F 86% 29.84 in 10.0 mi NNW 4.6 mph - N/A   Overcast
8:35 PM 65.8 °F 61.9 °F 87% 29.84 in 10.0 mi Calm Calm - N/A   Overcast
8:55 PM 65.3 °F 61.5 °F 88% 29.84 in 10.0 mi Calm Calm - N/A   Mostly Cloudy
9:15 PM 65.1 °F 61.7 °F 89% 29.85 in 10.0 mi ENE 3.5 mph - N/A   Mostly Cloudy
9:35 PM 65.7 °F 62.4 °F 89% 29.84 in 10.0 mi Calm Calm - N/A   Overcast
9:55 PM 65.5 °F 62.4 °F 90% 29.84 in 10.0 mi Calm Calm - N/A   Mostly Cloudy
10:15 PM 64.8 °F 61.7 °F 90% 29.83 in 10.0 mi ESE 3.5 mph - N/A   Scattered Clouds
10:35 PM 63.7 °F 60.8 °F 90% 29.83 in 10.0 mi ESE 4.6 mph - N/A   Clear
10:55 PM 63.7 °F 60.8 °F 90% 29.83 in 10.0 mi Calm Calm - N/A   Scattered Clouds
11:15 PM 63.7 °F 61.0 °F 91% 29.83 in 10.0 mi ESE 3.5 mph - N/A   Overcast
11:35 PM 64.4 °F 61.7 °F 91% 29.83 in 10.0 mi Calm Calm - N/A   Overcast
11:55 PM 63.9 °F 61.2 °F 91% 29.83 in 10.0 mi Calm Calm - N/A   Mostly Cloudy